THOR ABLESTAR DEB, 408

Orbit data source: Space-Track

THOR ABLESTAR DEB, 408 is space debris in LEO originally from a launch on Thu, 29 Jun 1961 UTC launched from the Air Force Eastern Test Range (AFETR). Debris objects in space refer to the collection of defunct objects orbiting the Earth. Examples of debris include non-operational satellites, rocket bodies, and fragments generated from explosions, collisions, or faulty payload assembly.

Loading next visibility...
Identifier
408, 1961-015EH
Orbit
LEO
Country
Flag of USUS
Related business
Manufacturer
Unknown
Mission
Spacecraft
Bus & Motor
Unknown
Mass
Unknown
Launch date (UTC)
1961-06-29 (65 years ago)
Launch vehicle
Unknown
Launch site
Air Force Eastern Test Range (AFETR)
Object type
Payload
Rocket body
Debris
Shape & HBR
Unknown shape, 0.1 m
Radar Cross Section
Medium (>0.1 m² and <1 m²)

Expand to show TLE details & history
Last TLE update: 11 hours ago

TLE from 11 hours ago
0 THOR ABLESTAR DEB
1 00408U 61015EH  26146.21733291  .00000325  00000-0  39799-3 0  9992
2 00408  66.7837 161.6834 0059511 141.3349 300.1093 13.77157767302671
Epoch: 2026-05-26T05:12Z
TLE epoch observation values (Epoch: 2026-05-26T05:12:57.563Z)
Latitude
65.24972°
Longitude
-92.59489°
Altitude
962.657 km
Speed
7.388 km/s
True Right ascension
15h 17m 45s
True Declination
65° 07' 20"
Sunlit
Object was in daylight at epoch
Visualization orbit readout
Latitude
Unknown
Longitude
Unknown
Altitude
Unknown
Speed
Unknown
Apparent Right ascension
Unknown
Apparent Declination
Unknown
Sunlit
N/A
Visualization observer readout
Local Sidereal Time
01:35:20
Azimuth
Unknown
Elevation
Unknown
Doppler factor
Unknown
Orbital elements
Apogee altitude
1,016.135 km
Perigee altitude
928.647 km
Semi-major axis
7,350.528 km
Eccentricity
0.00595
Inclination
66.7837°
RAAN
161.6834°
Arg. of periapsis
141.3349°
True anomaly
299.51717°
Mean anomaly
300.1093°
Eccentric anomaly
299.81346°
Mean motion
3.44402 °/min
Orbital period
104.53 mins
BSTAR
0.00039799

Documentation

Showing up to 5 results
|